Wind_Speed
44 46 47 43 38 37 37 36 35 34 35 37 38 36 37 40 42 44 44 35 19 25 21 13 13 17 16 18 20 22 22 19 13 10 12 12 8 5 5 4 13 45 46 43
43 46 42 39 41 38 36 36 34 35 36 39 39 38 40 40 43 45 41 33 25 28 22 15 10 15 16 17 19 20 20 18 13 12 11 13 9 5 3 10 13 37 47 53
39 37 36 39 39 39 38 37 34 36 36 39 43 43 42 40 42 43 37 24 29 29 24 15 13 13 17 16 18 17 17 17 13 12 11 11 9 6 3 13 23 24 42 48
41 38 37 37 36 38 34 37 38 38 39 41 44 45 42 41 44 44 37 34 30 31 23 17 12 16 18 15 16 15 15 15 12 10 13 12 11 3 3 15 22 33 36 44
42 38 35 35 33 37 33 37 38 38 40 42 44 47 42 36 40 44 39 41 33 38 27 17 11 16 20 14 13 13 13 13 9 9 11 12 14 7 5 8 20 32 36 43
45 41 39 38 38 39 38 38 39 41 43 45 44 41 36 34 33 37 41 43 32 38 24 19 12 17 16 14 11 13 12 12 8 6 6 7 11 12 9 9 13 14 23 24
42 39 36 37 37 36 36 39 41 43 44 42 37 38 34 34 30 36 38 37 36 28 21 17 14 15 20 16 10 12 13 13 11 5 3 4 8 11 13 12 13 13 16 26
42 41 40 39 39 36 32 35 40 40 38 32 31 38 31 30 27 28 31 31 34 29 22 15 14 22 20 15 12 10 12 12 13 8 6 4 5 7 11 15 16 17 17 16
41 42 39 37 35 34 34 40 38 36 38 35 35 33 29 22 19 22 26 24 33 25 23 16 18 23 20 15 14 13 12 11 8 6 8 9 8 8 9 9 11 13 19 19
42 41 38 34 33 33 36 32 37 39 40 37 37 32 30 26 27 29 29 33 32 22 24 25 21 22 19 17 16 16 15 14 10 7 6 9 14 13 13 12 11 11 11 18
37 35 32 29 31 32 35 39 39 38 37 35 36 30 24 27 36 36 36 32 35 36 37 34 26 25 25 23 20 19 19 18 13 10 7 5 9 14 14 12 10 9 10 15
37 33 33 27 27 27 34 37 38 42 39 34 30 25 34 33 42 26 39 39 38 39 38 33 28 27 28 26 24 23 22 22 17 14 9 6 5 12 11 11 11 10 11 12
41 34 32 26 30 31 42 36 38 42 37 36 31 23 29 38 35 17 27 33 40 39 32 32 36 34 33 30 28 26 26 26 21 17 13 10 7 10 14 12 11 11 14 16
38 37 39 36 33 35 35 42 41 42 38 34 34 30 29 25 23 30 24 24 37 44 44 35 31 35 36 32 31 29 29 27 24 19 16 13 12 11 15 17 15 14 15 17
24 39 35 32 34 35 33 37 43 45 43 38 34 28 30 35 32 19 27 21 39 46 43 42 38 39 40 34 31 29 29 26 25 24 20 18 15 15 14 18 21 21 21 21
31 24 32 31 32 32 29 36 34 38 30 26 30 38 46 41 34 29 13 21 37 21 44 37 33 32 26 34 32 31 31 29 27 23 22 23 18 18 19 18 18 20 22 24
36 21 25 28 32 30 30 25 24 28 30 28 27 28 45 40 39 35 30 18 19 23 29 23 23 18 24 27 22 29 33 35 32 25 22 23 21 20 22 20 19 19 21 21
41 41 27 28 29 31 31 29 25 27 27 31 27 24 25 29 32 33 39 36 30 29 29 22 24 25 25 27 29 28 31 35 32 29 27 25 24 25 24 25 24 24 22 21
37 37 36 33 34 32 28 30 30 29 30 28 25 24 29 29 32 37 38 38 32 31 29 31 31 32 35 38 31 32 35 32 28 27 27 30 31 31 30 29 27 27 27 25
37 36 42 44 40 35 28 36 29 27 28 27 27 30 30 35 39 39 36 30 32 34 33 32 35 38 37 40 40 35 33 31 34 32 30 33 37 35 35 35 34 33 33 32
27 33 35 33 32 31 30 31 24 30 30 29 27 25 29 31 29 30 34 35 31 35 37 37 36 39 43 38 37 35 34 35 34 38 39 38 38 44 42 45 40 40 38 38
14 19 25 26 27 27 31 25 28 28 29 27 27 28 25 26 26 26 28 31 33 33 32 34 35 37 39 39 42 43 42 39 38 37 39 40 44 49 46 44 44 43 44 43
21 20 19 17 14 22 27 24 26 25 25 25 23 22 26 29 30 32 34 34 34 33 34 35 36 38 41 43 44 45 46 45 45 45 44 44 46 51 50 50 41 41 43 45
13 13 21 23 23 30 28 25 23 27 27 25 23 26 28 28 29 30 31 32 33 34 35 38 41 43 43 44 46 48 49 50 50 52 54 54 54 53 54 54 54 51 51 51
8 15 14 15 14 19 22 17 25 30 25 22 23 22 24 26 27 28 30 31 33 35 36 39 42 43 44 46 48 52 55 57 59 60 61 63 63 63 61 60 59 57 56 55
10 7 7 13 19 20 19 17 20 22 25 19 18 22 23 23 22 24 27 29 30 33 33 34 37 40 40 39 37 47 54 59 63 63 65 66 68 68 66 60 60 63 58 57
Wind_Direction
249 250 256 253 249 247 248 250 257 257 254 251 253 256 258 263 267 265 263 257 263 273 272 254 271 282 288 300 313 320 316 320 303 273 256 258 254 236 200 243 196 199 191 198
241 255 251 244 243 246 253 257 264 260 255 260 259 257 254 256 261 262 267 262 249 260 266 271 272 276 284 296 306 312 312 317 304 277 254 251 246 234 250 194 201 199 206 208
245 249 242 239 239 243 247 256 258 259 255 257 257 262 252 252 258 266 267 253 253 258 267 273 273 271 271 286 299 303 306 312 313 267 241 241 230 247 267 207 213 203 205 203
243 240 239 239 245 245 250 247 249 254 256 257 258 265 258 250 256 258 264 246 253 257 263 268 267 250 260 271 291 292 297 304 315 277 238 222 222 197 207 205 212 204 215 217
251 246 240 243 247 244 248 244 251 253 254 256 261 264 260 252 254 254 257 244 249 253 250 248 254 250 259 268 282 277 284 295 303 303 238 221 213 198 166 183 202 208 224 219
240 239 239 243 238 235 238 240 243 248 253 257 260 268 261 256 256 251 248 245 240 244 238 230 231 247 255 259 268 264 266 282 292 298 285 220 212 201 170 182 181 199 204 218
238 240 239 236 237 240 240 237 241 245 249 260 266 267 264 261 253 254 246 247 230 222 238 217 218 254 249 252 257 251 252 264 274 283 268 226 202 208 205 190 152 155 195 213
226 226 229 236 239 237 241 246 249 253 260 272 266 259 260 261 250 255 244 237 229 212 215 208 220 237 239 237 246 243 248 254 260 248 242 225 197 206 217 215 210 194 177 157
227 224 227 230 236 232 227 231 242 250 256 259 257 257 255 239 233 233 235 220 213 199 210 220 248 234 236 225 238 226 226 232 223 212 220 213 211 215 214 210 209 203 212 193
221 221 221 225 229 234 231 231 235 239 242 247 255 250 242 224 213 218 218 200 201 193 216 216 222 230 231 225 230 226 225 226 215 222 220 214 208 207 216 219 217 208 198 207
223 222 217 226 223 222 230 227 218 234 245 244 247 242 221 217 206 216 203 208 201 199 203 203 216 227 227 223 227 227 230 226 221 227 253 244 218 208 200 207 211 221 199 202
225 223 217 223 236 232 228 231 229 230 237 238 233 230 230 228 209 194 207 212 211 208 206 215 215 210 226 222 223 227 232 234 237 232 233 247 245 213 206 205 197 197 211 214
224 222 224 208 211 217 212 207 212 224 231 229 225 229 233 240 226 208 197 195 221 215 215 209 216 207 217 226 222 224 230 239 240 232 222 218 224 217 213 214 218 211 207 205
209 202 213 202 199 205 207 208 207 217 227 218 224 209 225 238 227 249 210 217 198 222 211 213 214 214 211 213 214 223 231 239 240 234 230 223 224 226 225 224 225 227 228 227
198 194 204 205 222 202 211 213 209 210 221 227 204 204 223 239 242 236 235 222 198 216 219 216 221 216 209 211 213 217 228 236 245 244 243 238 235 238 239 232 227 231 231 234
227 180 180 204 224 223 206 211 209 219 221 229 216 230 231 231 234 222 213 240 195 189 214 216 216 230 220 213 216 224 226 230 235 241 246 245 243 251 251 244 242 239 242 246
221 207 194 212 228 234 233 219 233 242 230 213 218 222 227 235 235 230 222 222 240 228 192 210 225 221 234 238 229 243 240 243 240 234 242 247 246 251 254 249 242 240 241 245
250 244 236 231 241 240 234 219 224 224 231 234 234 227 224 237 245 242 239 237 234 243 226 241 245 251 251 234 233 240 252 241 244 239 238 238 247 249 253 253 253 256 255 257
237 240 233 229 235 244 242 226 226 227 230 227 239 238 232 235 241 243 246 248 243 243 243 239 242 249 253 257 242 235 244 253 253 250 243 247 243 244 247 253 252 254 257 258
239 234 229 233 241 241 243 228 221 226 232 237 238 237 231 238 241 245 251 254 245 242 239 237 242 241 243 248 251 241 240 238 244 248 246 253 256 255 249 255 255 256 254 255
219 218 219 224 233 236 237 223 225 223 226 231 237 234 227 233 236 236 239 245 241 241 238 237 243 250 245 244 250 252 249 246 243 247 250 251 257 255 249 251 250 252 253 255
215 207 207 220 231 219 218 216 220 227 227 231 229 231 231 229 233 237 238 240 241 240 245 246 246 248 244 243 246 247 253 252 250 245 245 244 248 257 258 252 257 257 255 256
224 213 208 224 223 215 210 212 216 228 231 237 239 239 240 240 238 239 240 245 248 248 249 249 248 246 243 244 245 247 249 251 252 254 253 247 244 248 253 261 257 254 260 263
183 204 203 202 205 211 212 211 217 231 227 233 236 243 248 244 243 246 246 245 246 245 246 246 245 246 247 250 250 250 251 253 253 253 255 253 251 247 248 253 257 255 257 258
104 160 166 169 197 206 210 215 220 231 237 250 248 251 250 249 249 250 251 251 247 251 255 257 259 259 261 263 264 258 254 251 251 251 251 253 254 254 249 251 253 257 260 260
207 152 204 192 190 192 194 207 218 228 236 250 257 257 253 259 261 265 266 266 264 263 267 260 269 266 267 270 265 255 253 252 250 249 249 250 253 255 257 259 261 257 257 265
Height
5687 5689 5693 5697 5700 5702 5703 5704 5708 5710 5711 5712 5713 5716 5719 5721 5722 5724 5723 5728 5728 5727 5731 5734 5732 5728 5727 5726 5723 5720 5719 5715 5711 5710 5710 5707 5704 5705 5705 5706 5708 5714 5718 5724
5672 5678 5684 5686 5687 5690 5691 5693 5699 5700 5701 5700 5702 5707 5710 5712 5713 5712 5716 5721 5721 5719 5724 5727 5725 5724 5723 5722 5720 5718 5716 5712 5709 5707 5705 5706 5703 5701 5702 5703 5706 5712 5717 5721
5663 5671 5671 5672 5675 5677 5680 5684 5688 5690 5690 5690 5690 5694 5699 5704 5703 5707 5710 5715 5714 5713 5716 5719 5718 5719 5718 5718 5718 5715 5713 5710 5707 5704 5703 5703 5702 5700 5700 5701 5705 5708 5714 5719
5651 5656 5658 5662 5666 5666 5671 5674 5676 5677 5677 5680 5681 5682 5689 5694 5695 5697 5703 5706 5708 5706 5709 5712 5713 5713 5713 5715 5714 5712 5711 5709 5705 5702 5700 5700 5700 5698 5699 5700 5702 5706 5711 5717
5645 5647 5649 5651 5658 5657 5665 5664 5664 5666 5669 5670 5670 5671 5680 5686 5686 5689 5695 5698 5699 5698 5701 5706 5706 5706 5708 5710 5710 5709 5708 5707 5704 5701 5698 5698 5699 5698 5697 5698 5700 5704 5707 5712
5628 5632 5637 5641 5643 5647 5652 5652 5653 5656 5658 5658 5661 5665 5673 5675 5679 5678 5682 5687 5689 5692 5698 5699 5700 5700 5703 5706 5706 5706 5706 5704 5703 5700 5697 5696 5697 5696 5696 5698 5697 5701 5704 5708
5618 5622 5627 5629 5633 5635 5638 5642 5644 5645 5646 5651 5657 5657 5663 5664 5667 5668 5672 5676 5681 5686 5691 5693 5695 5697 5699 5702 5702 5703 5703 5701 5701 5699 5697 5695 5694 5695 5695 5696 5696 5699 5701 5705
5601 5609 5613 5618 5622 5627 5630 5633 5634 5635 5639 5646 5648 5646 5656 5657 5659 5664 5665 5668 5673 5677 5683 5686 5689 5691 5694 5697 5698 5698 5699 5699 5698 5696 5696 5694 5693 5693 5693 5694 5695 5697 5698 5699
5590 5597 5602 5607 5612 5616 5622 5621 5629 5632 5633 5635 5637 5642 5647 5651 5654 5655 5657 5659 5669 5671 5675 5680 5684 5686 5689 5691 5693 5694 5695 5695 5695 5693 5693 5693 5693 5692 5692 5693 5693 5693 5695 5697
5578 5585 5593 5597 5600 5605 5609 5620 5621 5621 5623 5625 5628 5635 5638 5643 5647 5648 5649 5653 5659 5662 5669 5675 5679 5681 5684 5686 5688 5689 5691 5691 5691 5691 5690 5690 5691 5692 5692 5692 5692 5692 5692 5693
5568 5575 5584 5585 5589 5596 5601 5604 5611 5614 5616 5619 5623 5629 5634 5635 5639 5638 5643 5647 5651 5652 5658 5665 5672 5675 5678 5681 5683 5684 5686 5687 5687 5688 5687 5686 5687 5689 5691 5691 5691 5692 5692 5695
5560 5567 5574 5578 5582 5587 5593 5597 5603 5604 5608 5613 5617 5624 5625 5626 5627 5632 5639 5640 5641 5644 5650 5657 5662 5667 5672 5676 5677 5679 5682 5683 5683 5683 5684 5683 5682 5683 5686 5688 5688 5689 5692 5694
5553 5560 5567 5572 5577 5581 5583 5587 5592 5597 5602 5606 5611 5618 5620 5619 5622 5623 5628 5632 5632 5640 5647 5650 5654 5656 5662 5668 5671 5673 5675 5678 5679 5678 5679 5680 5679 5679 5681 5682 5684 5686 5688 5689
5547 5550 5557 5565 5571 5574 5578 5580 5583 5589 5594 5600 5603 5611 5612 5613 5616 5618 5623 5625 5627 5632 5638 5643 5648 5651 5653 5655 5660 5666 5669 5671 5673 5674 5674 5675 5676 5676 5677 5678 5680 5682 5684 5686
5544 5545 5553 5559 5562 5568 5573 5576 5580 5583 5587 5593 5601 5603 5607 5606 5608 5615 5617 5622 5624 5626 5631 5635 5640 5643 5645 5649 5652 5655 5661 5665 5666 5669 5670 5670 5671 5672 5674 5674 5675 5676 5678 5679
5540 5542 5547 5554 5557 5562 5569 5573 5577 5582 5584 5588 5593 5597 5596 5599 5605 5612 5613 5617 5619 5619 5624 5630 5635 5637 5637 5642 5645 5649 5653 5655 5658 5661 5664 5665 5666 5667 5669 5670 5672 5672 5674 5675
5534 5540 5544 5551 5556 5559 5565 5567 5569 5573 5575 5581 5586 5590 5592 5596 5601 5605 5610 5613 5613 5617 5620 5623 5626 5632 5634 5639 5642 5646 5648 5649 5651 5652 5656 5658 5660 5662 5662 5663 5665 5667 5667 5668
5526 5532 5540 5547 5551 5555 5560 5562 5564 5568 5572 5576 5581 5588 5590 5592 5593 5598 5600 5606 5609 5610 5614 5616 5619 5623 5627 5634 5638 5640 5639 5640 5642 5646 5649 5649 5653 5655 5656 5657 5658 5659 5660 5661
5521 5526 5534 5540 5545 5549 5554 5557 5561 5564 5568 5573 5578 5583 5586 5587 5589 5591 5595 5597 5602 5606 5610 5613 5616 5618 5619 5620 5625 5630 5632 5635 5635 5638 5640 5643 5644 5645 5648 5649 5651 5651 5652 5652
5517 5523 5529 5534 5539 5544 5548 5551 5558 5562 5566 5568 5572 5577 5583 5584 5584 5585 5587 5590 5594 5597 5601 5605 5607 5610 5612 5612 5613 5617 5619 5624 5627 5630 5630 5634 5636 5638 5639 5640 5640 5642 5643 5644
5512 5517 5524 5530 5533 5539 5542 5546 5553 5558 5564 5564 5568 5572 5576 5577 5578 5580 5582 5583 5586 5588 5591 5595 5598 5599 5602 5604 5606 5609 5610 5611 5615 5618 5620 5623 5625 5626 5627 5628 5628 5629 5632 5633
5510 5514 5519 5525 5527 5533 5537 5543 5548 5550 5554 5558 5562 5564 5567 5570 5572 5573 5574 5576 5578 5581 5584 5587 5589 5591 5593 5595 5597 5599 5601 5602 5604 5606 5608 5612 5613 5613 5615 5616 5618 5618 5620 5622
5507 5512 5516 5522 5527 5527 5531 5537 5542 5546 5549 5553 5557 5560 5562 5564 5566 5568 5570 5571 5573 5574 5576 5578 5580 5581 5583 5585 5588 5589 5590 5591 5593 5594 5597 5598 5602 5602 5602 5603 5605 5607 5609 5609
5504 5507 5511 5514 5519 5522 5527 5533 5537 5540 5542 5546 5549 5552 5553 5556 5559 5561 5563 5565 5565 5567 5569 5570 5571 5572 5573 5574 5575 5576 5577 5578 5580 5580 5581 5583 5586 5588 5589 5591 5592 5594 5597 5598
5503 5506 5511 5514 5517 5520 5524 5529 5532 5534 5539 5543 5544 5545 5546 5548 5551 5553 5555 5557 5558 5559 5560 5560 5560 5559 5560 5560 5560 5561 5561 5563 5564 5565 5566 5565 5567 5570 5574 5576 5577 5581 5583 5586
5501 5504 5508 5515 5516 5518 5522 5525 5528 5530 5534 5536 5538 5539 5540 5542 5544 5546 5547 5548 5549 5550 5551 5550 5549 5547 5547 5547 5545 5544 5543 5544 5546 5547 5548 5550 5552 5554 5556 5559 5562 5564 5567 5570